TimeMST,TemperatureF,Dew PointF,Humidity,Sea Level PressureIn,VisibilityMPH,Wind Direction,Wind SpeedMPH,Gust SpeedMPH,PrecipitationIn,Events,Conditions,WindDirDegrees,DateUTC
12:15 AM,47.1,37.0,68,30.29,10.0,NW,8.1,-,N/A,,Clear,320,2013-01-25 07:15:00
12:35 AM,45.5,36.5,71,30.29,10.0,WNW,9.2,-,N/A,,Clear,290,2013-01-25 07:35:00
12:55 AM,43.3,35.6,74,30.29,10.0,WNW,4.6,-,N/A,,Clear,290,2013-01-25 07:55:00
1:15 AM,44.6,36.1,72,30.29,10.0,Calm,Calm,-,N/A,,Clear,0,2013-01-25 08:15:00
1:35 AM,40.5,34.3,79,30.29,10.0,Calm,Calm,-,N/A,,Clear,0,2013-01-25 08:35:00
1:55 AM,46.9,38.1,71,30.28,10.0,North,3.5,-,N/A,,Clear,10,2013-01-25 08:55:00
2:15 AM,45.7,36.5,70,30.29,10.0,Calm,Calm,-,N/A,,Clear,0,2013-01-25 09:15:00
2:35 AM,44.6,36.5,73,30.28,10.0,NE,5.8,-,N/A,,Clear,40,2013-01-25 09:35:00
2:55 AM,43.0,35.8,76,30.29,10.0,NNE,3.5,-,N/A,,Clear,30,2013-01-25 09:55:00
3:15 AM,43.3,36.0,75,30.29,10.0,Calm,Calm,-,N/A,,Mostly Cloudy,0,2013-01-25 10:15:00
3:35 AM,44.2,36.3,74,30.28,10.0,NNE,5.8,-,N/A,,Mostly Cloudy,20,2013-01-25 10:35:00
3:55 AM,42.6,35.6,76,30.26,10.0,NE,3.5,-,N/A,,Clear,50,2013-01-25 10:55:00
4:15 AM,43.9,36.0,74,30.25,10.0,NE,9.2,-,N/A,,Scattered Clouds,40,2013-01-25 11:15:00
4:35 AM,44.4,35.6,71,30.25,10.0,NNE,4.6,-,N/A,,Scattered Clouds,20,2013-01-25 11:35:00
4:55 AM,43.0,35.2,74,30.25,10.0,NNE,5.8,-,N/A,,Scattered Clouds,20,2013-01-25 11:55:00
5:15 AM,42.3,34.7,75,30.25,10.0,North,5.8,-,N/A,,Scattered Clouds,10,2013-01-25 12:15:00
5:35 AM,41.5,33.4,73,30.26,10.0,North,6.9,-,N/A,,Clear,360,2013-01-25 12:35:00
5:55 AM,41.2,32.5,71,30.26,10.0,North,5.8,-,N/A,,Clear,350,2013-01-25 12:55:00
6:15 AM,39.2,32.0,75,30.27,10.0,NNE,3.5,-,N/A,,Clear,30,2013-01-25 13:15:00
6:35 AM,38.5,32.0,78,30.28,10.0,NW,6.9,-,N/A,,Clear,320,2013-01-25 13:35:00
6:55 AM,39.2,33.6,80,30.28,10.0,NW,5.8,-,N/A,,Clear,310,2013-01-25 13:55:00
7:15 AM,38.5,32.9,80,30.28,10.0,NW,9.2,-,N/A,,Clear,320,2013-01-25 14:15:00
7:35 AM,38.5,33.3,81,30.29,10.0,West,4.6,-,N/A,,Clear,280,2013-01-25 14:35:00
7:55 AM,37.6,32.4,81,30.30,10.0,NW,6.9,-,N/A,,Clear,320,2013-01-25 14:55:00
8:15 AM,45.9,34.7,65,30.32,10.0,North,5.8,-,N/A,,Clear,350,2013-01-25 15:15:00
8:35 AM,45.7,33.6,63,30.33,10.0,NNW,9.2,-,N/A,,Mostly Cloudy,330,2013-01-25 15:35:00
8:55 AM,46.9,33.8,60,30.32,10.0,NNE,5.8,-,N/A,,Overcast,30,2013-01-25 15:55:00
9:15 AM,47.7,33.6,58,30.32,10.0,NE,9.2,-,N/A,,Scattered Clouds,40,2013-01-25 16:15:00
9:35 AM,48.0,31.8,54,30.32,10.0,NE,8.1,-,N/A,,Scattered Clouds,50,2013-01-25 16:35:00
9:55 AM,48.7,31.8,52,30.33,10.0,North,4.6,-,N/A,,Scattered Clouds,10,2013-01-25 16:55:00
10:15 AM,50.0,32.0,50,30.33,10.0,North,4.6,-,N/A,,Clear,360,2013-01-25 17:15:00
10:35 AM,50.9,33.3,51,30.34,10.0,North,3.5,-,N/A,,Mostly Cloudy,350,2013-01-25 17:35:00
10:55 AM,51.8,35.6,54,30.33,10.0,North,4.6,-,N/A,,Overcast,360,2013-01-25 17:55:00
11:15 AM,53.4,37.2,54,30.33,10.0,North,4.6,-,N/A,,Overcast,360,2013-01-25 18:15:00
11:35 AM,54.1,37.4,53,30.31,10.0,NW,6.9,-,N/A,,Scattered Clouds,320,2013-01-25 18:35:00
11:55 AM,54.1,36.7,52,30.30,10.0,NW,4.6,-,N/A,,Clear,310,2013-01-25 18:55:00
12:15 PM,55.4,37.4,51,30.29,10.0,NW,4.6,-,N/A,,Clear,320,2013-01-25 19:15:00
12:35 PM,55.4,37.9,52,30.28,10.0,WSW,3.5,-,N/A,,Clear,250,2013-01-25 19:35:00
12:55 PM,56.1,38.7,52,30.26,10.0,WSW,4.6,-,N/A,,Clear,250,2013-01-25 19:55:00
1:15 PM,56.3,38.5,51,30.25,10.0,NW,3.5,-,N/A,,Clear,320,2013-01-25 20:15:00
1:35 PM,56.7,38.8,51,30.23,10.0,WNW,3.5,-,N/A,,Clear,300,2013-01-25 20:35:00
1:55 PM,57.9,38.8,49,30.23,10.0,NNW,4.6,-,N/A,,Clear,340,2013-01-25 20:55:00
2:15 PM,59.5,39.2,47,30.22,10.0,NNW,3.5,-,N/A,,Clear,340,2013-01-25 21:15:00
2:55 PM,60.1,39.2,46,30.21,10.0,NNW,5.8,-,N/A,,Clear,340,2013-01-25 21:55:00
3:15 PM,59.2,39.2,48,30.20,10.0,North,3.5,-,N/A,,Mostly Cloudy,360,2013-01-25 22:15:00
3:55 PM,60.3,38.7,45,30.19,10.0,NE,4.6,-,N/A,,Overcast,40,2013-01-25 22:55:00
4:15 PM,59.5,38.5,46,30.19,10.0,NNE,5.8,-,N/A,,Mostly Cloudy,20,2013-01-25 23:15:00
4:35 PM,58.1,38.7,48,30.19,10.0,NE,6.9,-,N/A,,Scattered Clouds,40,2013-01-25 23:35:00
4:55 PM,57.6,38.5,49,30.19,10.0,NE,5.8,-,N/A,,Scattered Clouds,40,2013-01-25 23:55:00
5:15 PM,55.8,37.8,51,30.19,10.0,NNE,6.9,-,N/A,,Clear,30,2013-01-26 00:15:00
5:35 PM,54.7,37.6,53,30.20,10.0,East,5.8,-,N/A,,Clear,80,2013-01-26 00:35:00
5:55 PM,52.3,36.7,55,30.20,10.0,ENE,6.9,-,N/A,,Clear,70,2013-01-26 00:55:00
6:15 PM,51.3,36.1,56,30.21,10.0,NE,4.6,-,N/A,,Scattered Clouds,40,2013-01-26 01:15:00
6:55 PM,50.5,36.1,58,30.22,10.0,NE,3.5,-,N/A,,Mostly Cloudy,40,2013-01-26 01:55:00
7:15 PM,49.1,35.2,59,30.22,10.0,Calm,Calm,-,N/A,,Overcast,0,2013-01-26 02:15:00
7:35 PM,51.8,37.0,57,30.21,10.0,NNE,3.5,-,N/A,,Overcast,30,2013-01-26 02:35:00
7:55 PM,50.0,35.6,58,30.21,10.0,Calm,Calm,-,N/A,,Overcast,0,2013-01-26 02:55:00
8:15 PM,50.9,36.7,58,30.21,10.0,NNE,5.8,-,N/A,,Overcast,20,2013-01-26 03:15:00
8:35 PM,49.6,35.6,59,30.21,10.0,NNE,4.6,-,N/A,,Overcast,30,2013-01-26 03:35:00
8:55 PM,48.6,35.1,60,30.20,10.0,NNE,4.6,-,N/A,,Mostly Cloudy,30,2013-01-26 03:55:00
9:15 PM,47.3,35.6,64,30.20,10.0,NNE,5.8,-,N/A,,Scattered Clouds,30,2013-01-26 04:15:00
9:35 PM,44.6,34.5,68,30.21,10.0,Calm,Calm,-,N/A,,Clear,0,2013-01-26 04:35:00
9:55 PM,44.6,34.5,68,30.21,10.0,Calm,Calm,-,N/A,,Scattered Clouds,0,2013-01-26 04:55:00
10:15 PM,44.8,34.9,68,30.21,10.0,Calm,Calm,-,N/A,,Scattered Clouds,0,2013-01-26 05:15:00
10:35 PM,44.8,34.2,66,30.21,10.0,Calm,Calm,-,N/A,,Scattered Clouds,0,2013-01-26 05:35:00
10:55 PM,45.9,34.7,65,30.19,10.0,NW,4.6,-,N/A,,Scattered Clouds,320,2013-01-26 05:55:00
11:15 PM,45.9,35.1,66,30.20,10.0,WNW,4.6,-,N/A,,Mostly Cloudy,290,2013-01-26 06:15:00
11:35 PM,46.0,34.7,65,30.20,10.0,WNW,5.8,-,N/A,,Overcast,290,2013-01-26 06:35:00
11:55 PM,46.4,35.1,65,30.19,10.0,WNW,5.8,-,N/A,,Overcast,300,2013-01-26 06:55:00